Location: Caltech
(34.1382°N, 118.1253°W)
Time: 22:52:45
(UTC-08:00)

Uosat F - Visible Passes

Search period start: 09 December 2016 00:00
Search period end: 19 December 2016 00:00
Orbit: 750 x 761 km, 98.8° (Epoch: 08 December)

Date Brightness Start Highest point End Pass type
(mag) Time Alt. Az. Time Alt. Az. Time Alt. Az.
09 Dec 11.6 06:04:39 10° NNE 06:09:38 65° ESE 06:14:35 10° S visible
09 Dec 11.1 17:14:00 10° SSE 17:18:56 61° ENE 17:23:54 10° N visible
09 Dec 14.3 18:56:05 10° WSW 18:58:01 12° W 18:59:58 10° WNW visible
10 Dec 13.5 05:25:58 10° NE 05:30:03 25° E 05:34:07 10° SSE visible
10 Dec 12.9 18:13:50 10° SSW 18:18:17 32° W 18:22:46 10° NW visible
11 Dec 11.2 17:33:44 10° SSE 17:38:46 84° WSW 17:43:49 10° NNW visible
12 Dec 12.6 05:45:19 10° NNE 05:50:00 39° E 05:54:39 10° SSE visible
12 Dec 13.7 18:34:36 10° SW 18:38:16 20° W 18:41:56 10° NW visible
13 Dec 14.1 05:07:26 10° ENE 05:10:18 15° E 05:13:10 10° SE visible
13 Dec 12.0 17:53:45 10° S 17:58:38 52° W 18:03:32 10° NNW visible
14 Dec 11.6 06:04:55 10° NNE 06:09:54 65° ESE 06:14:50 10° S visible
14 Dec 11.1 17:14:17 10° SSE 17:19:13 60° ENE 17:24:10 10° N visible
14 Dec 14.3 18:56:17 10° WSW 18:58:17 12° W 19:00:17 10° WNW visible
15 Dec 13.5 05:26:15 10° NE 05:30:18 25° E 05:34:21 10° SSE visible
15 Dec 12.9 18:14:05 10° SSW 18:18:33 32° W 18:23:03 10° NW visible
16 Dec 11.1 17:34:00 10° SSE 17:39:01 85° WSW 17:44:04 10° NNW visible
17 Dec 12.6 05:45:34 10° NNE 05:50:15 39° E 05:54:54 10° SSE visible
17 Dec 13.7 18:34:51 10° SW 18:38:31 20° W 18:42:12 10° NW visible
18 Dec 14.1 05:07:43 10° ENE 05:10:33 15° E 05:13:24 10° SE visible
18 Dec 11.9 17:54:00 10° S 17:58:53 53° W 18:03:48 10° NNW visible
